Location: Plymouth
(43.7490°N, 87.9770°W)
Time: 23:59:20
(UTC-06:00)

Daily predictions for brighter satellites

Satellite Brightness Start Highest point End
(mag) Time Altitude Azimuth Time Altitude Azimuth Time Altitude Azimuth
Cosmos 1943 Rocket 2.4 16:38:36 10° SSW 16:44:13 77° WNW 16:49:55 10° NNE
Cosmos 1634 Rocket 4.3 16:40:11 10° SSE 16:46:04 48° E 16:52:01 10° NNE
Cosmos 1898 Rocket 4.2 16:41:33 10° SSE 16:46:10 33° E 16:50:50 10° NE
Cosmos 923 Rocket 4.2 16:41:56 10° NNW 16:47:08 78° WSW 16:52:20 10° SSE
ALOS 3.9 16:46:10 10° E 16:48:33 14° ENE 16:50:56 10° NNE
Cosmos 1666 4.5 16:47:51 10° NE 16:49:28 12° ENE 16:51:05 10° E
Cosmos 1975 Rocket 4.1 16:46:28 10° SE 16:50:11 27° E 16:53:57 10° NNE
Ariane Rocket 3.2 16:47:14 10° SE 16:52:07 51° ENE 16:57:02 10° N
Abrixas rocket 4.4 16:50:34 10° S 16:52:27 15° SE 16:54:20 10° ESE
Cosmos 1092 Rocket 4.0 16:46:51 10° N 16:53:06 76° E 16:59:22 10° SSE
Okean 1 Rocket 3.1 16:49:42 10° N 16:54:10 66° E 16:58:37 10° SSE
Meteor 1-4 Rocket 2.5 16:55:37 10° N 16:59:19 70° ENE 17:02:56 10° SSE
CSL-04 Debris 4.1 16:56:38 10° SSE 17:01:57 66° ENE 17:07:19 10° N
Atlas Centaur 2 4.0 17:01:27 10° SSW 17:03:04 12° S 17:04:35 10° SSE
ATLAS CENTAUR R/B 1.9 16:59:26 10° NW 17:03:20 62° WSW 17:07:29 10° SSE
Cosmos 2112 Rocket 4.1 16:58:41 10° NNW 17:03:58 84° WSW 17:09:17 10° SSE
Cosmos 1674 Rocket 4.0 17:01:09 10° SSW 17:05:25 63° W 17:09:43 10° N
Cosmos 1937 Rocket 4.1 17:00:56 10° SSE 17:05:38 36° ESE 17:10:19 10° NE
AQUARIUS 4.1 17:04:52 10° SSE 17:09:19 67° ENE 17:13:48 10° N
Cosmos 2195 Rocket 4.4 17:03:35 10° N 17:09:47 72° E 17:15:53 10° SSE
Okean 1 3.6 17:08:40 10° SSE 17:12:28 46° E 17:16:17 10° NNE
Cosmos 2026 Rocket 4.0 17:07:29 10° N 17:13:53 68° E 17:20:11 10° SSE
Cosmos 1378 Rocket 3.6 17:09:33 10° S 17:13:59 89° W 17:18:28 10° N
CENTAUR R/B 4.4 17:10:04 10° NNW 17:14:50 18° NNE 17:19:14 12° NE
Cosmos 1743 3.5 17:16:08 10° NNE 17:19:35 30° ENE 17:23:01 10° SE
Meteor 1-28 Rocket 3.2 17:16:58 10° NNE 17:20:41 61° E 17:24:23 10° S
Cosmos 1975 2.9 17:17:15 10° N 17:21:12 52° E 17:25:09 10° SSE
Cosmos 2369 Rocket 3.9 17:17:14 10° WSW 17:22:00 28° NW 17:26:47 10° N
CZ-4 R/B 1.2 17:18:27 10° SSE 17:22:15 67° ENE 17:26:08 10° N
USA 238 DEB 4.3 17:16:22 10° NNW 17:22:52 37° NE 17:29:25 10° ESE
USA 238 4.3 17:16:28 10° NNW 17:22:58 37° NE 17:29:31 10° ESE
SKYMED 2 4.3 17:21:08 11° NE 17:24:51 31° E 17:28:43 10° SSE
CSL-04 Rocket 4.1 17:22:27 10° S 17:27:49 69° WSW 17:33:17 10° NNW
Lacrosse 5 3.8 17:24:18 10° WNW 17:28:48 33° SW 17:33:16 10° S
CZ-4 R/B 4.5 17:28:40 10° SSE 17:32:44 57° ENE 17:36:49 10° N
FENGYUN 3A 4.0 17:32:20 10° SE 17:37:20 40° ENE 17:42:20 10° N
Cosmos 2150 Rocket 4.1 17:33:33 10° S 17:38:54 60° ESE 17:43:43 13° NNE
Cosmos 858 Rocket 4.4 17:34:19 10° SSW 17:39:30 84° ESE 17:44:43 10° NNE
BREEZE-M DEB (TANK) 3.2 17:37:18 10° WNW 17:39:30 37° N 17:41:07 24° NE
Cosmos 1932 4.4 17:33:50 10° NNW 17:40:15 76° NE 17:46:31 10° SE
NOSS 2-3 (D) 3.8 17:36:06 10° SSW 17:40:43 83° SE 17:44:39 18° NE
Cosmos 990 Rocket 3.9 17:35:46 10° S 17:40:51 69° ESE 17:45:27 13° NNE
Cosmos 1484 Rocket 4.1 17:39:08 10° S 17:42:58 44° W 17:46:51 10° NNW
Cosmos 2219 3.1 17:38:01 10° NNW 17:43:40 82° ENE 17:49:17 10° SSE
SPOT 3 Rocket 3.7 17:39:19 10° SE 17:44:16 48° ENE 17:49:15 10° N
Cosmos 1271 Rocket 2.7 17:40:53 10° N 17:44:35 51° ENE 17:48:17 10° SSE
Landsat 4 3.7 17:41:34 15° NNE 17:44:39 63° ESE 17:48:26 10° S
Cosmos 2227 Rocket 2.7 17:40:01 10° N 17:45:13 35° NE 17:48:56 17° ESE
Cosmos 1428 Rocket 4.4 17:40:55 10° N 17:47:10 88° E 17:53:18 10° S
Meteor 1-13 Rocket 4.3 17:47:19 10° S 17:52:41 54° E 17:58:10 10° NNE
METEOR-M 4.1 17:47:50 10° SSE 17:53:10 87° ENE 17:58:34 10° NNW
Meteor 2-9 Rocket 4.3 17:48:59 10° N 17:54:24 48° ENE 17:59:38 10° SSE
NOSS 3-2 (A) 4.5 17:48:57 10° NNW 17:55:43 38° NE 17:59:15 26° E
Cosmos 1455 Rocket 2.9 17:51:53 10° N 17:56:20 69° E 18:00:42 10° SSE
Cosmos 1544 Rocket 3.4 17:55:22 10° N 17:59:46 81° E 18:04:07 10° S
Cosmos 2279 Rocket 4.1 17:53:35 10° S 17:59:50 79° W 18:06:09 10° N
YAOGAN 1 3.0 17:57:54 10° S 18:02:11 63° W 18:06:30 10° NNW
NOAA 12 4.0 17:59:41 10° SSE 18:04:55 69° ENE 18:10:10 10° N
ATLAS 2AS CENTAUR R/B 3.0 17:59:53 10° SSW 18:07:35 72° ESE 18:12:50 24° NE
NOSS 2-3 (E) 4.4 18:06:36 10° SW 18:11:14 56° NW 18:14:19 24° NNE
COSMO-SKYMED 1 2.6 18:09:44 17° N 18:13:01 79° WNW 18:17:21 10° SSW
Cosmos 2297 Rocket 2.3 18:07:37 10° NNW 18:13:07 48° ENE 18:14:38 39° ESE
OPS 6432 4.4 18:10:29 10° SW 18:14:06 68° NW 18:14:15 67° NNW
Meteor 2-4 Rocket 3.5 18:08:47 10° S 18:14:12 63° E 18:17:11 27° NNE
Cosmos 389 Rocket 3.6 18:12:20 10° NNW 18:15:42 44° W 18:19:01 10° SSW
ISS -2.4 18:14:23 10° NW 18:16:24 29° NNW 18:16:24 29° NNW
ERS-2 2.6 18:14:29 10° S 18:18:06 59° WSW 18:21:44 10° NNW
ATLAS 3B R/B 2.5 18:15:11 10° NNW 18:21:54 69° NE 18:25:15 30° SE
Meteor 1-19 Rocket 4.3 18:17:50 10° SSW 18:23:27 77° W 18:29:15 10° N
Cosmos 158 Rocket 3.8 18:19:18 10° NNW 18:24:26 68° ENE 18:26:00 43° SE
ALOS 2.4 18:20:44 10° S 18:25:23 73° WSW 18:30:05 10° NNW
Cosmos 1666 3.6 18:21:46 10° NNW 18:25:24 46° W 18:28:59 10° SSW
Abrixas rocket 3.4 18:25:22 10° WSW 18:27:36 41° WSW 18:27:36 41° WSW
DELTA 2 R/B (1) 4.0 18:27:58 10° WSW 18:33:19 48° SSE 18:34:06 45° SE
Cosmos 724 4.3 18:30:00 10° NNW 18:35:33 56° NE 18:35:33 56° NE
Cosmos 2369 3.7 18:32:33 10° S 18:37:46 57° SE 18:37:46 57° SE
SJ 16-02 2.7 18:35:12 10° S 18:37:20 28° S 18:37:20 28° S
Cosmos 1125 Rocket 3.5 18:34:18 10° S 18:39:01 61° SE 18:39:01 61° SE
Cosmos 2278 3.8 18:35:35 10° S 18:40:31 55° SE 18:40:31 55° SE
Cosmos 1048 Rocket 4.0 18:43:36 10° NNW 18:48:38 76° N 18:48:38 76° N
FengYun 1-2 T 4.1 18:45:22 10° SSE 18:50:58 89° WSW 18:56:39 10° NNW
Atlas Centaur 2 3.9 18:49:19 10° SSW 18:50:40 12° S 18:50:40 12° S
Cosmos 1656 4.1 18:46:30 10° S 18:50:41 49° SSE 18:50:41 49° SSE
CENTAUR R/B 3.8 19:00:52 10° NNW 19:06:25 35° NNE 19:06:25 35° NNE
Meteor 1-23 Rocket 4.5 19:03:54 10° SSW 19:09:39 67° WNW 19:10:11 63° NW
Cosmos 2082 4.0 19:07:17 10° NNW 19:12:32 63° W 19:12:32 63° W
Cosmos 1697 Rocket 4.3 19:08:32 10° SSW 19:10:38 23° S 19:10:38 23° S
USA 238 DEB 4.1 19:07:14 10° NW 19:14:13 61° WSW 19:17:13 36° S
USA 238 4.1 19:07:20 10° NW 19:14:20 62° WSW 19:17:13 37° S
Cosmos 2227 Rocket 3.5 19:24:06 10° NW 19:29:16 37° WSW 19:30:57 30° SW
NOSS 3-2 (A) 4.2 19:39:39 10° NW 19:46:43 66° WSW 19:46:43 66° WSW
NOSS 3-2 (C) 4.4 19:43:16 10° NW 19:49:06 58° NW 19:49:06 58° NW
Cosmos 2297 Rocket 4.1 19:52:15 10° NW 19:56:33 26° W 19:56:33 26° W
ATLAS 2AS CENTAUR R/B 4.1 19:52:04 10° WSW 19:59:18 37° NW 20:00:19 36° NNW
ATLAS 3B R/B 4.4 20:06:50 10° WNW 20:11:56 24° WSW 20:12:37 24° WSW
